Year,Month,Day,Hour,Minute,Value (Times are PST for windspeed in km/hr)
2011,07,08,00,00,5.10
2011,07,08,00,01,1.90
2011,07,08,00,02,3.90
2011,07,08,00,03,5.50
2011,07,08,00,04,0.80
2011,07,08,00,05,8.60
2011,07,08,00,06,3.10
2011,07,08,00,07,5.00
2011,07,08,00,08,6.40
2011,07,08,00,09,4.60
2011,07,08,00,10,5.70
2011,07,08,00,11,1.90
2011,07,08,00,12,5.60
2011,07,08,00,13,10.10
2011,07,08,00,16,3.60
2011,07,08,00,17,7.20
2011,07,08,00,18,3.90
2011,07,08,00,19,3.80
2011,07,08,00,20,5.30
2011,07,08,00,21,9.20
2011,07,08,00,22,11.60
2011,07,08,00,23,10.20
2011,07,08,00,24,9.40
2011,07,08,00,25,8.40
2011,07,08,00,26,7.10
2011,07,08,00,27,6.10
2011,07,08,00,28,10.20
2011,07,08,00,29,6.30
2011,07,08,00,30,6.50
2011,07,08,00,31,9.10
2011,07,08,00,32,9.80
2011,07,08,00,33,7.20
2011,07,08,00,34,2.60
2011,07,08,00,35,1.40
2011,07,08,00,36,6.30
2011,07,08,00,37,8.90
2011,07,08,00,38,8.00
2011,07,08,00,39,5.90
2011,07,08,00,40,7.50
2011,07,08,00,41,15.70
2011,07,08,00,42,5.60
2011,07,08,00,43,2.80
2011,07,08,00,44,1.30
2011,07,08,00,45,4.80
2011,07,08,00,46,5.60
2011,07,08,00,47,4.90
2011,07,08,00,48,7.40
2011,07,08,00,49,9.30
2011,07,08,00,50,9.30
2011,07,08,00,51,9.40
2011,07,08,00,52,6.50
2011,07,08,00,53,1.80
2011,07,08,00,54,1.10
2011,07,08,00,55,8.90
2011,07,08,00,56,6.90
2011,07,08,00,57,2.00
2011,07,08,00,58,3.00
2011,07,08,00,59,6.20
2011,07,08,01,00,10.50
2011,07,08,01,01,8.00
2011,07,08,01,02,7.00
2011,07,08,01,03,9.70
2011,07,08,01,04,2.40
2011,07,08,01,05,6.70
2011,07,08,01,06,8.50
2011,07,08,01,07,9.50
2011,07,08,01,08,7.90
2011,07,08,01,09,5.20
2011,07,08,01,10,6.60
2011,07,08,01,11,3.40
2011,07,08,01,12,7.90
2011,07,08,01,13,13.00
2011,07,08,01,14,6.90
2011,07,08,01,15,8.70
2011,07,08,01,16,6.40
2011,07,08,01,17,4.40
2011,07,08,01,18,9.20
2011,07,08,01,19,3.90
2011,07,08,01,20,7.30
2011,07,08,01,21,6.40
2011,07,08,01,22,9.30
2011,07,08,01,23,6.40
2011,07,08,01,24,7.20
2011,07,08,01,25,4.50
2011,07,08,01,26,4.70
2011,07,08,01,27,4.50
2011,07,08,01,28,4.90
2011,07,08,01,29,4.80
2011,07,08,01,30,4.40
2011,07,08,01,31,4.50
2011,07,08,01,32,6.30
2011,07,08,01,33,13.30
2011,07,08,01,34,14.20
2011,07,08,01,35,2.10
2011,07,08,01,36,3.40
2011,07,08,01,37,4.70
2011,07,08,01,38,9.10
2011,07,08,01,39,3.40
2011,07,08,01,40,8.30
2011,07,08,01,41,7.20
2011,07,08,01,42,2.30
2011,07,08,01,43,9.30
2011,07,08,01,44,10.50
2011,07,08,01,45,5.60
2011,07,08,01,46,13.60
2011,07,08,01,47,7.80
2011,07,08,01,48,6.70
2011,07,08,01,49,2.70
2011,07,08,01,50,6.20
2011,07,08,01,51,8.70
2011,07,08,01,52,8.90
2011,07,08,01,53,10.10
2011,07,08,01,54,7.90
2011,07,08,01,55,2.60
2011,07,08,01,56,9.90
2011,07,08,01,57,8.30
2011,07,08,01,58,6.40
2011,07,08,01,59,3.50
2011,07,08,02,00,7.10
2011,07,08,02,01,4.70
2011,07,08,02,02,13.70
2011,07,08,02,03,8.00
2011,07,08,02,04,5.30
2011,07,08,02,05,4.10
2011,07,08,02,06,10.60
2011,07,08,02,07,5.30
2011,07,08,02,08,15.40
2011,07,08,02,09,9.00
2011,07,08,02,10,3.20
2011,07,08,02,11,5.10
2011,07,08,02,12,5.90
2011,07,08,02,13,10.40
2011,07,08,02,14,6.40
2011,07,08,02,15,2.80
2011,07,08,02,16,6.80
2011,07,08,02,17,10.70
2011,07,08,02,18,7.80
2011,07,08,02,19,8.90
2011,07,08,02,20,5.70
2011,07,08,02,21,4.10
2011,07,08,02,22,1.40
2011,07,08,02,23,5.20
2011,07,08,02,24,6.90
2011,07,08,02,25,6.50
2011,07,08,02,26,8.80
2011,07,08,02,27,11.10
2011,07,08,02,28,7.70
2011,07,08,02,29,6.10
2011,07,08,02,30,6.00
2011,07,08,02,31,2.70
2011,07,08,02,32,4.90
2011,07,08,02,33,5.00
2011,07,08,02,34,11.70
2011,07,08,02,35,4.30
2011,07,08,02,36,6.60
2011,07,08,02,37,2.70
2011,07,08,02,38,6.60
2011,07,08,02,39,1.50
2011,07,08,02,40,3.60
2011,07,08,02,41,4.10
2011,07,08,02,42,5.30
2011,07,08,02,43,4.40
2011,07,08,02,44,5.10
2011,07,08,02,45,7.60
2011,07,08,02,46,1.00
2011,07,08,02,47,3.90
2011,07,08,02,48,4.70
2011,07,08,02,49,1.50
2011,07,08,02,50,2.40
2011,07,08,02,51,1.20
2011,07,08,02,52,4.80
2011,07,08,02,53,8.20
2011,07,08,02,54,8.90
2011,07,08,02,55,1.10
2011,07,08,02,56,0.90
2011,07,08,02,57,2.60
2011,07,08,02,58,1.30
2011,07,08,02,59,1.60
2011,07,08,03,00,3.00
2011,07,08,03,01,2.40
2011,07,08,03,02,0.50
2011,07,08,03,03,6.80
2011,07,08,03,04,5.70
2011,07,08,03,05,4.00
2011,07,08,03,06,4.50
2011,07,08,03,07,2.30
2011,07,08,03,08,2.90
2011,07,08,03,09,4.60
2011,07,08,03,10,6.90
2011,07,08,03,11,3.60
2011,07,08,03,12,1.10
2011,07,08,03,13,4.20
2011,07,08,03,14,6.20
2011,07,08,03,15,7.20
2011,07,08,03,16,2.40
2011,07,08,03,17,3.90
2011,07,08,03,18,1.50
2011,07,08,03,19,2.60
2011,07,08,03,20,0.20
2011,07,08,03,21,1.90
2011,07,08,03,22,2.70
2011,07,08,03,23,7.90
2011,07,08,03,24,7.60
2011,07,08,03,25,2.70
2011,07,08,03,26,1.80
2011,07,08,03,27,4.30
2011,07,08,03,28,7.70
2011,07,08,03,29,7.10
2011,07,08,03,30,4.10
2011,07,08,03,31,2.70
2011,07,08,03,32,1.10
2011,07,08,03,33,9.60
2011,07,08,03,34,6.00
2011,07,08,03,35,1.10
2011,07,08,03,36,2.10
2011,07,08,03,37,2.80
2011,07,08,03,38,0.30
2011,07,08,03,39,2.40
2011,07,08,03,40,1.20
2011,07,08,03,41,2.90
2011,07,08,03,42,3.40
2011,07,08,03,43,0.60
2011,07,08,03,44,0.60
2011,07,08,03,45,0.20
2011,07,08,03,46,0.70
2011,07,08,03,47,0.30
2011,07,08,03,48,1.40
2011,07,08,03,49,5.20
2011,07,08,03,50,4.90
2011,07,08,03,51,3.70
2011,07,08,03,52,0.30
2011,07,08,03,53,0.20
2011,07,08,03,54,1.60
2011,07,08,03,55,1.20
2011,07,08,03,56,1.40
2011,07,08,03,57,5.60
2011,07,08,03,58,8.50
2011,07,08,03,59,5.00
2011,07,08,04,00,4.00
2011,07,08,04,01,2.40
2011,07,08,04,02,4.10
2011,07,08,04,03,3.00
2011,07,08,04,04,0.10
2011,07,08,04,05,0.00
2011,07,08,04,06,2.50
2011,07,08,04,07,0.60
2011,07,08,04,08,0.00
2011,07,08,04,09,0.30
2011,07,08,04,10,1.60
2011,07,08,04,11,0.00
2011,07,08,04,12,0.20
2011,07,08,04,13,4.20
2011,07,08,04,14,2.00
2011,07,08,04,15,2.90
2011,07,08,04,16,0.20
2011,07,08,04,17,1.80
2011,07,08,04,18,2.30
2011,07,08,04,19,4.20
2011,07,08,04,20,0.20
2011,07,08,04,21,0.00
2011,07,08,04,22,0.50
2011,07,08,04,23,0.30
2011,07,08,04,24,1.10
2011,07,08,04,25,0.20
2011,07,08,04,26,0.00
2011,07,08,04,27,0.00
2011,07,08,04,28,0.00
2011,07,08,04,29,0.00
2011,07,08,04,30,0.00
2011,07,08,04,31,0.10
2011,07,08,04,32,0.40
2011,07,08,04,33,0.30
2011,07,08,04,34,0.10
2011,07,08,04,35,0.20
2011,07,08,04,36,0.00
2011,07,08,04,37,0.00
2011,07,08,04,38,0.00
2011,07,08,04,39,0.00
2011,07,08,04,40,0.00
2011,07,08,04,41,0.00
2011,07,08,04,42,0.10
2011,07,08,04,43,1.40
2011,07,08,04,44,1.50
2011,07,08,04,45,0.30
2011,07,08,04,46,0.50
2011,07,08,04,47,1.90
2011,07,08,04,48,1.00
2011,07,08,04,49,1.10
2011,07,08,04,50,0.50
2011,07,08,04,51,0.20
2011,07,08,04,52,1.10
2011,07,08,04,53,1.20
2011,07,08,04,54,0.00
2011,07,08,04,55,0.90
2011,07,08,04,56,0.80
2011,07,08,04,57,0.00
2011,07,08,04,58,0.10
2011,07,08,04,59,0.30
2011,07,08,05,00,0.80
2011,07,08,05,01,2.00
2011,07,08,05,02,1.40
2011,07,08,05,03,0.30
2011,07,08,05,04,1.60
2011,07,08,05,05,0.10
2011,07,08,05,06,1.10
2011,07,08,05,07,0.50
2011,07,08,05,08,0.20
2011,07,08,05,09,0.30
2011,07,08,05,10,0.00
2011,07,08,05,11,0.10
2011,07,08,05,12,0.20
2011,07,08,05,13,0.20
2011,07,08,05,14,0.90
2011,07,08,05,15,1.50
2011,07,08,05,16,1.40
2011,07,08,05,17,0.20
2011,07,08,05,18,0.00
2011,07,08,05,19,0.40
2011,07,08,05,20,0.90
2011,07,08,05,21,2.50
2011,07,08,05,22,2.80
2011,07,08,05,23,0.60
2011,07,08,05,24,0.00
2011,07,08,05,25,1.40
2011,07,08,05,26,1.20
2011,07,08,05,27,0.20
2011,07,08,05,28,1.60
2011,07,08,05,29,0.50
2011,07,08,05,30,0.00
2011,07,08,05,31,0.00
2011,07,08,05,32,1.10
2011,07,08,05,33,0.30
2011,07,08,05,34,0.30
2011,07,08,05,35,3.50
2011,07,08,05,36,3.70
2011,07,08,05,37,1.70
2011,07,08,05,38,0.40
2011,07,08,05,39,2.80
2011,07,08,05,40,3.20
2011,07,08,05,41,3.40
2011,07,08,05,42,1.80
2011,07,08,05,43,5.10
2011,07,08,05,44,1.40
2011,07,08,05,45,0.00
2011,07,08,05,46,0.10
2011,07,08,05,47,1.20
2011,07,08,05,48,2.00
2011,07,08,05,49,0.60
2011,07,08,05,50,1.00
2011,07,08,05,51,0.50
2011,07,08,05,52,0.70
2011,07,08,05,53,0.00
2011,07,08,05,54,0.00
2011,07,08,05,55,0.20
2011,07,08,05,56,0.00
2011,07,08,05,57,0.00
2011,07,08,05,58,1.20
2011,07,08,05,59,3.30
2011,07,08,06,00,3.30
2011,07,08,06,01,0.60
2011,07,08,06,02,2.30
2011,07,08,06,03,1.80
2011,07,08,06,04,0.90
2011,07,08,06,05,2.40
2011,07,08,06,06,0.50
2011,07,08,06,07,1.80
2011,07,08,06,08,3.20
2011,07,08,06,09,0.10
2011,07,08,06,10,2.10
2011,07,08,06,11,1.20
2011,07,08,06,12,4.70
2011,07,08,06,13,4.70
2011,07,08,06,14,2.00
2011,07,08,06,15,0.30
2011,07,08,06,16,0.10
2011,07,08,06,17,0.80
2011,07,08,06,18,0.50
2011,07,08,06,19,0.10
2011,07,08,06,20,2.60
2011,07,08,06,21,5.10
2011,07,08,06,22,2.90
2011,07,08,06,23,2.50
2011,07,08,06,24,1.60
2011,07,08,06,25,4.10
2011,07,08,06,26,0.60
2011,07,08,06,27,0.60
2011,07,08,06,28,2.70
2011,07,08,06,29,0.40
2011,07,08,06,30,1.60
2011,07,08,06,31,2.70
2011,07,08,06,32,1.50
2011,07,08,06,33,3.00
2011,07,08,06,34,1.90
2011,07,08,06,35,3.30
2011,07,08,06,36,1.50
2011,07,08,06,37,0.60
2011,07,08,06,38,0.30
2011,07,08,06,39,1.50
2011,07,08,06,40,1.40
2011,07,08,06,41,0.20
2011,07,08,06,42,2.80
2011,07,08,06,43,3.50
2011,07,08,06,44,2.30
2011,07,08,06,45,3.00
2011,07,08,06,46,3.30
2011,07,08,06,47,5.10
2011,07,08,06,48,5.40
2011,07,08,06,49,2.10
2011,07,08,06,50,3.70
2011,07,08,06,51,6.90
2011,07,08,06,52,2.70
2011,07,08,06,53,2.70
2011,07,08,06,54,3.60
2011,07,08,06,55,6.00
2011,07,08,06,56,6.80
2011,07,08,06,57,1.90
2011,07,08,06,58,4.20
2011,07,08,06,59,8.10
2011,07,08,07,00,2.40
2011,07,08,07,01,4.30
2011,07,08,07,02,5.40
2011,07,08,07,03,4.40
2011,07,08,07,04,1.30
2011,07,08,07,05,0.50
2011,07,08,07,06,0.60
2011,07,08,07,07,3.50
2011,07,08,07,08,1.90
2011,07,08,07,09,1.70
2011,07,08,07,10,1.00
2011,07,08,07,11,0.60
2011,07,08,07,12,4.70
2011,07,08,07,13,1.90
2011,07,08,07,14,2.70
2011,07,08,07,15,0.80
2011,07,08,07,16,0.60
2011,07,08,07,17,1.10
2011,07,08,07,18,1.00
2011,07,08,07,19,1.60
2011,07,08,07,20,0.10
2011,07,08,07,21,0.10
2011,07,08,07,22,0.30
2011,07,08,07,23,0.10
2011,07,08,07,24,0.00
2011,07,08,07,25,0.20
2011,07,08,07,26,0.80
2011,07,08,07,27,0.30
2011,07,08,07,28,0.20
2011,07,08,07,29,3.40
2011,07,08,07,30,0.90
2011,07,08,07,31,0.50
2011,07,08,07,32,0.20
2011,07,08,07,33,1.20
2011,07,08,07,34,0.80
2011,07,08,07,35,3.40
2011,07,08,07,36,5.50
2011,07,08,07,37,1.60
2011,07,08,07,38,1.40
2011,07,08,07,39,1.10
2011,07,08,07,40,0.90
2011,07,08,07,41,0.90
2011,07,08,07,42,1.00
2011,07,08,07,43,0.00
2011,07,08,07,44,0.00
2011,07,08,07,45,0.10
2011,07,08,07,46,2.70
2011,07,08,07,47,1.20
2011,07,08,07,48,1.00
2011,07,08,07,49,1.80
2011,07,08,07,50,2.10
2011,07,08,07,51,2.70
2011,07,08,07,52,0.20
2011,07,08,07,53,2.90
2011,07,08,07,54,2.50
2011,07,08,07,55,2.70
2011,07,08,07,56,3.90
2011,07,08,07,57,1.40
2011,07,08,07,58,0.90
2011,07,08,07,59,2.40
2011,07,08,08,00,1.00
2011,07,08,08,01,2.60
2011,07,08,08,02,1.10
2011,07,08,08,03,5.70
2011,07,08,08,04,1.90
2011,07,08,08,05,0.30
2011,07,08,08,06,1.30
2011,07,08,08,07,2.40
2011,07,08,08,08,0.70
2011,07,08,08,09,3.90
2011,07,08,08,10,0.50
2011,07,08,08,11,3.70
2011,07,08,08,12,0.90
2011,07,08,08,13,1.50
2011,07,08,08,14,0.00
2011,07,08,08,15,0.60
2011,07,08,08,16,2.80
2011,07,08,08,17,2.50
2011,07,08,08,18,1.80
2011,07,08,08,19,0.00
2011,07,08,08,20,0.20
2011,07,08,08,21,0.70
2011,07,08,08,22,0.00
2011,07,08,08,23,0.50
2011,07,08,08,24,0.60
2011,07,08,08,25,4.60
2011,07,08,08,26,3.00
2011,07,08,08,27,4.20
2011,07,08,08,28,3.60
2011,07,08,08,29,2.80
2011,07,08,08,30,1.00
2011,07,08,08,31,0.30
2011,07,08,08,32,0.80
2011,07,08,08,33,4.00
2011,07,08,08,34,1.30
2011,07,08,08,35,0.80
2011,07,08,08,36,0.10
2011,07,08,08,37,1.00
2011,07,08,08,38,0.00
2011,07,08,08,39,0.10
2011,07,08,08,40,3.80
2011,07,08,08,41,7.10
2011,07,08,08,42,6.80
2011,07,08,08,43,5.20
2011,07,08,08,44,0.80
2011,07,08,08,45,5.20
2011,07,08,08,46,5.20
2011,07,08,08,47,3.40
2011,07,08,08,48,3.10
2011,07,08,08,49,4.70
2011,07,08,08,50,0.50
2011,07,08,08,51,3.10
2011,07,08,08,52,3.60
2011,07,08,08,53,0.70
2011,07,08,08,54,0.20
2011,07,08,08,55,0.20
2011,07,08,08,56,0.60
2011,07,08,08,57,0.40
2011,07,08,08,58,0.10
2011,07,08,08,59,0.20
2011,07,08,09,00,0.80
2011,07,08,09,01,1.40
2011,07,08,09,02,0.80
2011,07,08,09,03,5.90
2011,07,08,09,04,3.50
2011,07,08,09,05,4.90
2011,07,08,09,06,4.70
2011,07,08,09,07,2.10
2011,07,08,09,08,1.90
2011,07,08,09,09,2.60
2011,07,08,09,10,10.70
2011,07,08,09,11,8.70
2011,07,08,09,12,5.80
2011,07,08,09,13,3.50
2011,07,08,09,14,5.20
2011,07,08,09,15,5.80
2011,07,08,09,16,0.60
2011,07,08,09,17,1.00
2011,07,08,09,18,0.50
2011,07,08,09,19,1.40
2011,07,08,09,20,0.30
2011,07,08,09,21,1.30
2011,07,08,09,22,2.10
2011,07,08,09,23,3.50
2011,07,08,09,24,6.20
2011,07,08,09,25,3.70
2011,07,08,09,26,2.30
2011,07,08,09,27,1.30
2011,07,08,09,28,1.10
2011,07,08,09,29,0.60
2011,07,08,09,30,1.20
2011,07,08,09,31,4.20
2011,07,08,09,32,5.50
2011,07,08,09,33,7.10
2011,07,08,09,34,3.70
2011,07,08,09,35,0.30
2011,07,08,09,36,2.90
2011,07,08,09,37,3.90
2011,07,08,09,38,1.00
2011,07,08,09,39,1.20
2011,07,08,09,40,2.00
2011,07,08,09,41,3.20
2011,07,08,09,42,5.70
2011,07,08,09,43,4.70
2011,07,08,09,44,2.80
2011,07,08,09,45,4.20
2011,07,08,09,46,4.00
2011,07,08,09,47,0.50
2011,07,08,09,48,0.90
2011,07,08,09,49,3.90
2011,07,08,09,50,2.00
2011,07,08,09,51,1.80
2011,07,08,09,52,3.50
2011,07,08,09,53,1.20
2011,07,08,09,54,0.90
2011,07,08,09,55,2.00
2011,07,08,09,56,0.60
2011,07,08,09,57,0.20
2011,07,08,09,58,1.70
2011,07,08,09,59,1.70
2011,07,08,10,00,1.30
2011,07,08,10,01,6.10
2011,07,08,10,02,4.60
2011,07,08,10,03,3.70
2011,07,08,10,04,2.80
2011,07,08,10,05,7.80
2011,07,08,10,06,5.90
2011,07,08,10,07,7.70
2011,07,08,10,08,3.10
2011,07,08,10,09,1.30
2011,07,08,10,10,1.10
2011,07,08,10,11,2.30
2011,07,08,10,12,1.00
2011,07,08,10,13,2.60
2011,07,08,10,14,0.40
2011,07,08,10,15,3.70
2011,07,08,10,16,4.50
2011,07,08,10,17,5.30
2011,07,08,10,18,6.90
2011,07,08,10,19,6.40
2011,07,08,10,20,7.60
2011,07,08,10,21,3.50
2011,07,08,10,22,1.70
2011,07,08,10,23,8.20
2011,07,08,10,24,7.00
2011,07,08,10,25,6.60
2011,07,08,10,26,3.40
2011,07,08,10,27,1.30
2011,07,08,10,28,5.90
2011,07,08,10,29,4.20
2011,07,08,10,30,0.80
2011,07,08,10,31,9.20
2011,07,08,10,32,6.00
2011,07,08,10,33,3.20
2011,07,08,10,34,1.10
2011,07,08,10,35,5.00
2011,07,08,10,36,4.70
2011,07,08,10,37,5.70
2011,07,08,10,38,7.00
2011,07,08,10,39,8.40
2011,07,08,10,40,7.00
2011,07,08,10,41,6.00
2011,07,08,10,42,4.20
2011,07,08,10,43,7.40
2011,07,08,10,44,11.90
2011,07,08,10,45,12.00
2011,07,08,10,46,12.70
2011,07,08,10,47,11.90
2011,07,08,10,48,6.50
2011,07,08,10,49,7.90
2011,07,08,10,50,10.40
2011,07,08,10,51,10.70
2011,07,08,10,52,8.20
2011,07,08,10,53,7.10
2011,07,08,10,54,9.00
2011,07,08,10,55,6.10
2011,07,08,10,56,6.50
2011,07,08,10,57,8.00
2011,07,08,10,58,8.70
2011,07,08,10,59,9.80
2011,07,08,11,00,10.60
2011,07,08,11,01,8.70
2011,07,08,11,02,8.20
2011,07,08,11,03,7.60
2011,07,08,11,04,6.00
2011,07,08,11,05,8.40
2011,07,08,11,06,8.90
2011,07,08,11,07,9.80
2011,07,08,11,08,9.60
2011,07,08,11,09,8.20
2011,07,08,11,10,6.50
2011,07,08,11,11,8.30
2011,07,08,11,12,7.10
2011,07,08,11,13,2.30
2011,07,08,11,14,5.00
2011,07,08,11,15,3.50
2011,07,08,11,16,1.80
2011,07,08,11,17,1.90
2011,07,08,11,18,4.10
2011,07,08,11,19,1.90
2011,07,08,11,20,0.90
2011,07,08,11,21,4.30
2011,07,08,11,22,1.50
2011,07,08,11,23,4.60
2011,07,08,11,24,3.90
2011,07,08,11,25,6.50
2011,07,08,11,26,8.30
2011,07,08,11,27,7.50
2011,07,08,11,28,8.00
2011,07,08,11,29,3.20
2011,07,08,11,30,6.70
2011,07,08,11,31,8.10
2011,07,08,11,32,9.40
2011,07,08,11,33,8.00
2011,07,08,11,34,6.80
2011,07,08,11,35,9.20
2011,07,08,11,36,8.40
2011,07,08,11,37,10.50
2011,07,08,11,38,9.30
2011,07,08,11,39,8.60
2011,07,08,11,40,12.30
2011,07,08,11,41,10.90
2011,07,08,11,42,11.70
2011,07,08,11,43,8.00
2011,07,08,11,44,10.00
2011,07,08,11,45,12.10
2011,07,08,11,46,9.60
2011,07,08,11,47,8.40
2011,07,08,11,48,8.90
2011,07,08,11,49,7.90
2011,07,08,11,50,9.20
2011,07,08,11,51,10.10
2011,07,08,11,52,11.30
2011,07,08,11,53,6.60
2011,07,08,11,54,6.40
2011,07,08,11,55,4.10
2011,07,08,11,56,7.20
2011,07,08,11,57,8.10
2011,07,08,11,58,6.80
2011,07,08,11,59,9.30
2011,07,08,12,00,9.30
2011,07,08,12,01,7.50
2011,07,08,12,02,8.20
2011,07,08,12,03,6.60
2011,07,08,12,04,6.40
2011,07,08,12,05,10.20
2011,07,08,12,06,9.10
2011,07,08,12,07,4.50
2011,07,08,12,08,5.00
2011,07,08,12,09,8.00
2011,07,08,12,10,7.20
2011,07,08,12,11,6.40
2011,07,08,12,12,4.40
2011,07,08,12,13,7.70
2011,07,08,12,14,10.10
2011,07,08,12,15,7.30
2011,07,08,12,16,6.20
2011,07,08,12,17,2.00
2011,07,08,12,18,1.50
2011,07,08,12,19,4.90
2011,07,08,12,20,4.10
2011,07,08,12,21,3.30
2011,07,08,12,22,1.40
2011,07,08,12,23,2.00
2011,07,08,12,24,4.30
2011,07,08,12,25,0.40
2011,07,08,12,26,3.50
2011,07,08,12,27,0.20
2011,07,08,12,28,1.10
2011,07,08,12,29,3.50
2011,07,08,12,30,2.40
2011,07,08,12,31,2.00
2011,07,08,12,32,2.60
2011,07,08,12,33,3.70
2011,07,08,12,34,5.10
2011,07,08,12,35,4.20
2011,07,08,12,36,3.40
2011,07,08,12,37,4.30
2011,07,08,12,38,2.80
2011,07,08,12,39,2.80
2011,07,08,12,40,2.20
2011,07,08,12,41,5.50
2011,07,08,12,42,8.50
2011,07,08,12,43,5.10
2011,07,08,12,44,2.60
2011,07,08,12,45,1.90
2011,07,08,12,46,5.50
2011,07,08,12,47,4.00
2011,07,08,12,48,4.00
2011,07,08,12,49,6.90
2011,07,08,12,50,6.90
2011,07,08,12,51,7.30
2011,07,08,12,52,5.60
2011,07,08,12,53,3.20
2011,07,08,12,54,7.40
2011,07,08,12,55,11.30
2011,07,08,12,56,8.20
2011,07,08,12,57,8.30
2011,07,08,12,58,6.40
2011,07,08,12,59,4.00
2011,07,08,13,00,8.00
2011,07,08,13,01,3.80
2011,07,08,13,02,3.90
2011,07,08,13,03,6.50
2011,07,08,13,04,2.00
2011,07,08,13,05,4.30
2011,07,08,13,06,7.30
2011,07,08,13,07,7.20
2011,07,08,13,08,2.60
2011,07,08,13,09,4.90
2011,07,08,13,10,4.60
2011,07,08,13,11,5.10
2011,07,08,13,12,6.80
2011,07,08,13,13,8.30
2011,07,08,13,14,5.00
2011,07,08,13,15,3.40
2011,07,08,13,16,1.90
2011,07,08,13,17,2.00
2011,07,08,13,18,0.50
2011,07,08,13,19,2.80
2011,07,08,13,20,1.90
2011,07,08,13,21,1.80
2011,07,08,13,22,1.70
2011,07,08,13,23,0.90
2011,07,08,13,24,0.50
2011,07,08,13,25,2.70
2011,07,08,13,26,1.30
2011,07,08,13,27,0.90
2011,07,08,13,28,1.30
2011,07,08,13,29,0.20
2011,07,08,13,30,0.20
2011,07,08,13,31,5.80
2011,07,08,13,32,1.90
2011,07,08,13,33,0.70
2011,07,08,13,34,2.50
2011,07,08,13,35,1.80
2011,07,08,13,36,1.70
2011,07,08,13,37,3.00
2011,07,08,13,38,7.30
2011,07,08,13,39,3.30
2011,07,08,13,40,6.60
2011,07,08,13,41,2.60
2011,07,08,13,42,1.80
2011,07,08,13,43,2.60
2011,07,08,13,44,2.70
2011,07,08,13,45,7.10
2011,07,08,13,46,5.30
2011,07,08,13,47,3.50
2011,07,08,13,48,6.10
2011,07,08,13,49,5.10
2011,07,08,13,50,6.80
2011,07,08,13,51,3.60
2011,07,08,13,52,7.90
2011,07,08,13,53,6.30
2011,07,08,13,54,5.50
2011,07,08,13,55,4.30
2011,07,08,13,56,3.30
2011,07,08,13,57,3.20
2011,07,08,13,58,6.00
2011,07,08,13,59,5.60
2011,07,08,14,00,4.10
2011,07,08,14,01,1.90
2011,07,08,14,02,3.00
2011,07,08,14,03,0.30
2011,07,08,14,04,2.50
2011,07,08,14,05,0.40
2011,07,08,14,06,1.30
2011,07,08,14,07,0.90
2011,07,08,14,08,0.10
2011,07,08,14,09,0.60
2011,07,08,14,10,2.30
2011,07,08,14,11,2.20
2011,07,08,14,12,3.20
2011,07,08,14,13,3.00
2011,07,08,14,14,5.30
2011,07,08,14,15,3.30
2011,07,08,14,16,3.90
2011,07,08,14,17,2.40
2011,07,08,14,18,2.50
2011,07,08,14,19,4.70
2011,07,08,14,20,7.00
2011,07,08,14,21,3.10
2011,07,08,14,22,3.90
2011,07,08,14,23,8.30
2011,07,08,14,24,3.90
2011,07,08,14,25,2.70
2011,07,08,14,26,1.80
2011,07,08,14,27,2.10
2011,07,08,14,28,1.40
2011,07,08,14,29,0.30
2011,07,08,14,30,1.50
2011,07,08,14,31,2.40
2011,07,08,14,32,1.30
2011,07,08,14,33,2.90
2011,07,08,14,34,1.00
2011,07,08,14,35,1.90
2011,07,08,14,36,0.70
2011,07,08,14,37,0.60
2011,07,08,14,38,0.50
2011,07,08,14,39,1.10
2011,07,08,14,40,0.30
2011,07,08,14,41,1.20
2011,07,08,14,42,2.20
2011,07,08,14,43,1.00
2011,07,08,14,44,0.30
2011,07,08,14,45,0.30
2011,07,08,14,46,0.50
2011,07,08,14,47,0.40
2011,07,08,14,48,1.40
2011,07,08,14,49,0.10
2011,07,08,14,50,0.20
2011,07,08,14,51,0.50
2011,07,08,14,52,0.40
2011,07,08,14,53,1.40
2011,07,08,14,54,5.60
2011,07,08,14,55,3.70
2011,07,08,14,56,8.60
2011,07,08,14,57,9.30
2011,07,08,14,58,11.00
2011,07,08,14,59,14.30
2011,07,08,15,00,15.50
2011,07,08,15,01,13.70
2011,07,08,15,02,14.60
2011,07,08,15,03,15.90
2011,07,08,15,04,14.40
2011,07,08,15,05,8.60
2011,07,08,15,06,12.10
2011,07,08,15,07,11.00
2011,07,08,15,08,9.70
2011,07,08,15,09,9.40
2011,07,08,15,10,7.20
2011,07,08,15,11,6.00
2011,07,08,15,12,6.20
2011,07,08,15,13,7.10
2011,07,08,15,14,9.80
2011,07,08,15,15,8.90
2011,07,08,15,16,9.40
2011,07,08,15,17,9.20
2011,07,08,15,18,6.50
2011,07,08,15,19,6.80
2011,07,08,15,20,3.60
2011,07,08,15,21,4.00
2011,07,08,15,22,1.20
2011,07,08,15,23,3.90
2011,07,08,15,24,2.50
2011,07,08,15,25,2.20
2011,07,08,15,26,7.00
2011,07,08,15,27,7.80
2011,07,08,15,28,5.30
2011,07,08,15,29,10.10
2011,07,08,15,30,8.30
2011,07,08,15,31,6.50
2011,07,08,15,32,5.00
2011,07,08,15,33,4.50
2011,07,08,15,34,4.60
2011,07,08,15,35,8.00
2011,07,08,15,36,5.90
2011,07,08,15,37,3.50
2011,07,08,15,38,2.20
2011,07,08,15,39,4.10
2011,07,08,15,40,3.00
2011,07,08,15,41,0.70
2011,07,08,15,42,0.90
2011,07,08,15,43,3.90
2011,07,08,15,44,3.30
2011,07,08,15,45,4.10
2011,07,08,15,46,3.80
2011,07,08,15,47,5.10
2011,07,08,15,48,5.60
2011,07,08,15,49,8.40
2011,07,08,15,50,4.40
2011,07,08,15,51,5.60
2011,07,08,15,52,6.80
2011,07,08,15,53,6.40
2011,07,08,15,54,4.50
2011,07,08,15,55,3.00
2011,07,08,15,56,2.10
2011,07,08,15,57,4.30
2011,07,08,15,58,3.00
2011,07,08,15,59,3.90
2011,07,08,16,00,6.80
2011,07,08,16,01,7.50
2011,07,08,16,02,8.60
2011,07,08,16,03,6.20
2011,07,08,16,04,3.40
2011,07,08,16,05,4.50
2011,07,08,16,06,5.60
2011,07,08,16,07,8.40
2011,07,08,16,08,10.90
2011,07,08,16,09,4.30
2011,07,08,16,10,10.20
2011,07,08,16,11,6.90
2011,07,08,16,12,14.40
2011,07,08,16,13,10.20
2011,07,08,16,14,12.20
2011,07,08,16,15,16.10
2011,07,08,16,16,10.10
2011,07,08,16,17,14.70
2011,07,08,16,18,10.10
2011,07,08,16,19,7.70
2011,07,08,16,20,13.10
2011,07,08,16,21,10.50
2011,07,08,16,22,9.40
2011,07,08,16,23,6.80
2011,07,08,16,24,9.40
2011,07,08,16,25,9.70
2011,07,08,16,26,14.80
2011,07,08,16,27,10.90
2011,07,08,16,28,14.00
2011,07,08,16,29,14.80
2011,07,08,16,30,9.90
2011,07,08,16,31,11.70
2011,07,08,16,32,8.50
2011,07,08,16,33,10.50
2011,07,08,16,34,10.90
2011,07,08,16,35,12.60
2011,07,08,16,36,8.50
2011,07,08,16,37,7.70
2011,07,08,16,38,7.80
2011,07,08,16,39,10.00
2011,07,08,16,40,9.40
2011,07,08,16,41,10.80
2011,07,08,16,42,13.40
2011,07,08,16,43,11.40
2011,07,08,16,44,12.20
2011,07,08,16,45,14.20
2011,07,08,16,46,8.30
2011,07,08,16,47,7.30
2011,07,08,16,48,8.90
2011,07,08,16,49,4.20
2011,07,08,16,50,7.80
2011,07,08,16,51,9.90
2011,07,08,16,52,12.30
2011,07,08,16,53,11.70
2011,07,08,16,54,12.40
2011,07,08,16,55,12.60
2011,07,08,16,56,12.60
2011,07,08,16,57,14.20
2011,07,08,16,58,8.30
2011,07,08,16,59,8.40
2011,07,08,17,00,10.40
2011,07,08,17,01,14.10
2011,07,08,17,02,8.90
2011,07,08,17,03,9.80
2011,07,08,17,04,8.00
2011,07,08,17,05,4.00
2011,07,08,17,06,7.00
2011,07,08,17,07,13.00
2011,07,08,17,08,9.00
2011,07,08,17,09,5.40
2011,07,08,17,10,10.60
2011,07,08,17,11,11.40
2011,07,08,17,12,10.50
2011,07,08,17,13,8.30
2011,07,08,17,14,10.60
2011,07,08,17,15,4.80
2011,07,08,17,16,4.80
2011,07,08,17,17,6.00
2011,07,08,17,18,7.60
2011,07,08,17,19,8.10
2011,07,08,17,20,6.30
2011,07,08,17,21,4.70
2011,07,08,17,22,12.40
2011,07,08,17,23,11.40
2011,07,08,17,24,13.20
2011,07,08,17,25,8.10
2011,07,08,17,26,8.20
2011,07,08,17,27,4.50
2011,07,08,17,28,5.40
2011,07,08,17,29,4.50
2011,07,08,17,30,6.10
2011,07,08,17,31,6.10
2011,07,08,17,32,1.70
2011,07,08,17,33,5.90
2011,07,08,17,34,5.10
2011,07,08,17,35,9.10
2011,07,08,17,36,4.70
2011,07,08,17,37,6.00
2011,07,08,17,38,8.40
2011,07,08,17,39,6.80
2011,07,08,17,40,8.20
2011,07,08,17,41,9.70
2011,07,08,17,42,9.60
2011,07,08,17,43,11.20
2011,07,08,17,44,4.40
2011,07,08,17,45,9.20
2011,07,08,17,46,9.90
2011,07,08,17,47,8.00
2011,07,08,17,48,6.10
2011,07,08,17,49,8.90
2011,07,08,17,50,10.50
2011,07,08,17,51,7.20
2011,07,08,17,52,7.70
2011,07,08,17,53,6.40
2011,07,08,17,54,3.10
2011,07,08,17,55,4.80
2011,07,08,17,56,5.80
2011,07,08,17,57,4.40
2011,07,08,17,58,5.30
2011,07,08,17,59,7.80
2011,07,08,18,00,5.40
2011,07,08,18,01,7.40
2011,07,08,18,02,5.70
2011,07,08,18,03,4.50
2011,07,08,18,04,4.60